Location: Caltech
(34.1382°N, 118.1253°W)
Time: 00:47:01
(UTC-07:00)

CZ-2C R/B - Visible Passes

Search period start: 05 July 2015 00:00
Search period end: 15 July 2015 00:00
Orbit: 704 x 909 km, 98.1° (Epoch: 03 July)

Date Brightness Start Highest point End Pass type
(mag) Time Alt. Az. Time Alt. Az. Time Alt. Az.
05 Jul 5.7 01:22:34 11° E 01:24:46 14° ENE 01:27:31 10° NE visible
05 Jul 3.1 03:03:39 68° SW 03:04:10 74° WSW 03:09:43 10° NNW visible
06 Jul 3.4 02:38:46 59° ESE 02:39:33 67° ENE 02:45:02 10° N visible
06 Jul 5.0 04:19:51 14° W 04:19:53 14° W 04:22:24 10° WNW visible
07 Jul 4.3 02:13:54 35° E 02:14:59 39° ENE 02:20:04 10° N visible
07 Jul 4.4 03:54:59 24° W 03:54:59 24° W 03:59:16 10° NW visible
08 Jul 5.0 01:49:02 21° E 01:50:28 23° ENE 01:54:46 10° NNE visible
08 Jul 3.7 03:30:07 40° W 03:30:08 40° W 03:35:16 10° NNW visible
09 Jul 5.6 01:24:10 12° E 01:25:59 14° ENE 01:28:48 10° NE visible
09 Jul 3.1 03:05:15 69° WSW 03:05:26 70° WSW 03:10:53 10° NNW visible
10 Jul 3.3 02:40:23 66° ESE 02:40:48 70° ENE 02:46:12 10° N visible
10 Jul 5.1 04:21:28 12° W 04:21:28 12° W 04:23:15 10° WNW visible
11 Jul 4.1 02:15:31 38° E 02:16:14 40° ENE 02:21:15 10° N visible
11 Jul 4.5 03:56:37 22° W 03:56:37 22° W 04:00:19 10° NW visible
12 Jul 4.9 01:50:39 22° E 01:51:41 24° ENE 01:55:58 10° NNE visible
12 Jul 3.8 03:31:45 38° W 03:31:45 38° W 03:36:22 10° NNW visible
13 Jul 5.5 01:25:48 13° E 01:27:12 14° ENE 01:30:02 10° NE visible
13 Jul 3.1 03:06:52 66° W 03:06:52 66° W 03:12:00 10° NNW visible
14 Jul 3.2 02:42:01 73° E 02:42:03 73° ENE 02:47:21 10° N visible
14 Jul 5.2 04:23:06 11° W 04:23:06 11° W 04:23:57 10° WNW visible
